カタログに戻る

COSMOS 1925

運用中軍事LEO
NORAD 18938·PAYLOAD·🇷🇺 Russia

打ち上げ Mar 11, 1988 から Plesetsk Cosmodrome

Loading…

次のパス (今後24時間)

TLE

最新Source: Space-Track

元期: Sep 14, 2026, 12:38 UTC

1 18938U 88016B   26257.52650531 -.00000009  00000-0  46406-4 0  9995
2 18938  74.0040 293.9765 0024025 194.8924 236.4344 12.46850634752916

AllMySatでCOSMOS 1925をリアルタイム追跡

Download on the App Store